N23MJ KTRK-KONT

Flight info

Callsign N23MJ
Flight time 1h 6m
Altitude 25000
Route MOWGL2 SWR FRA TTE ZIGGY8
Aircraft HDJT/L-SABDGRWY/H

Departure

Time 2026-05-07 03:40
Airport Truckee Tahoe Airport (KTRK)

Arrival

Time 2026-05-07 04:46
Airport Ontario International Airport (KONT)
Time Latitude Longitude Altitude Speed Heading
2026-05-07 03:18 39.31863 -120.14265 5899 ft 0 kts 31°
2026-05-07 03:34 39.31876 -120.14260 5899 ft 4 kts 349°
2026-05-07 03:34 39.31917 -120.14279 5899 ft 8 kts 20°
2026-05-07 03:35 39.31953 -120.14276 5899 ft 6 kts 322°
2026-05-07 03:35 39.31991 -120.14353 5899 ft 14 kts 300°
2026-05-07 03:35 39.32043 -120.14466 5899 ft 14 kts 300°
2026-05-07 03:35 39.32087 -120.14564 5900 ft 11 kts 300°
2026-05-07 03:36 39.32121 -120.14642 5900 ft 9 kts 299°
2026-05-07 03:36 39.32149 -120.14706 5901 ft 8 kts 300°
2026-05-07 03:36 39.32177 -120.14769 5901 ft 8 kts 300°
2026-05-07 03:36 39.32202 -120.14826 5902 ft 7 kts 299°
2026-05-07 03:37 39.32227 -120.14881 5902 ft 10 kts 300°
2026-05-07 03:37 39.32276 -120.14987 5906 ft 18 kts 300°
2026-05-07 03:37 39.32331 -120.15112 5904 ft 14 kts 301°
2026-05-07 03:37 39.32374 -120.15208 5904 ft 11 kts 300°
2026-05-07 03:38 39.32409 -120.15281 5905 ft 5 kts 306°
2026-05-07 03:38 39.32415 -120.15291 5905 ft 0 kts 317°
2026-05-07 03:38 39.32437 -120.15299 5904 ft 10 kts 17°
2026-05-07 03:39 39.32459 -120.15226 5907 ft 12 kts 119°
2026-05-07 03:39 39.32328 -120.14924 5905 ft 65 kts 120°
2026-05-07 03:39 39.32012 -120.14232 5899 ft 115 kts 122°
2026-05-07 03:39 39.31551 -120.13164 5966 ft 152 kts 121°
2026-05-07 03:40 39.31026 -120.11991 6646 ft 146 kts 122°
2026-05-07 03:40 39.30487 -120.10872 7193 ft 151 kts 125°
2026-05-07 03:40 39.29859 -120.09703 7526 ft 165 kts 127°
2026-05-07 03:40 39.29001 -120.08635 7950 ft 170 kts 137°
2026-05-07 03:41 39.28123 -120.07535 8536 ft 182 kts 134°
2026-05-07 03:41 39.27522 -120.06769 9024 ft 185 kts 134°
2026-05-07 03:41 39.26456 -120.05451 9873 ft 187 kts 135°
2026-05-07 03:41 39.25328 -120.04636 10559 ft 190 kts 171°
2026-05-07 03:42 39.24027 -120.04483 11264 ft 186 kts 175°
2026-05-07 03:42 39.22734 -120.04317 11894 ft 187 kts 171°
2026-05-07 03:42 39.21442 -120.04046 12486 ft 189 kts 169°
2026-05-07 03:42 39.20584 -120.03854 12898 ft 189 kts 169°
2026-05-07 03:43 39.18852 -120.03476 13704 ft 191 kts 169°
2026-05-07 03:43 39.17967 -120.03285 14101 ft 192 kts 169°
2026-05-07 03:43 39.16205 -120.02902 14793 ft 195 kts 169°
2026-05-07 03:43 39.15294 -120.02705 15149 ft 197 kts 169°
2026-05-07 03:44 39.13951 -120.02414 15667 ft 199 kts 169°
2026-05-07 03:44 39.12579 -120.02116 16186 ft 202 kts 169°
2026-05-07 03:44 39.11184 -120.01815 16717 ft 204 kts 169°
2026-05-07 03:44 39.09777 -120.01510 17258 ft 206 kts 169°
2026-05-07 03:45 39.08355 -120.01201 17800 ft 208 kts 169°
2026-05-07 03:45 39.06916 -120.00891 18340 ft 211 kts 169°
2026-05-07 03:45 39.05460 -120.00575 18829 ft 213 kts 169°
2026-05-07 03:45 39.03992 -120.00259 19302 ft 215 kts 169°
2026-05-07 03:46 39.02513 -119.99939 19773 ft 217 kts 169°
2026-05-07 03:46 39.01015 -119.99615 20246 ft 219 kts 169°
2026-05-07 03:46 38.99508 -119.99290 20717 ft 221 kts 169°
2026-05-07 03:46 38.97989 -119.98962 21185 ft 223 kts 169°
2026-05-07 03:47 38.96470 -119.98634 21648 ft 225 kts 169°
2026-05-07 03:47 38.94899 -119.98296 22126 ft 227 kts 169°
2026-05-07 03:47 38.93335 -119.97959 22602 ft 229 kts 169°
2026-05-07 03:47 38.91776 -119.97623 23076 ft 231 kts 169°
2026-05-07 03:48 38.90180 -119.97279 23558 ft 233 kts 170°
2026-05-07 03:48 38.88574 -119.96935 24004 ft 236 kts 170°
2026-05-07 03:48 38.86947 -119.96583 24409 ft 238 kts 170°
2026-05-07 03:48 38.85307 -119.96232 24833 ft 239 kts 170°
2026-05-07 03:49 38.83656 -119.95876 25243 ft 243 kts 170°
2026-05-07 03:49 38.81913 -119.95501 25279 ft 265 kts 170°
2026-05-07 03:49 38.80012 -119.95093 25283 ft 288 kts 170°
2026-05-07 03:49 38.77961 -119.94653 25275 ft 309 kts 170°
2026-05-07 03:50 38.75770 -119.94183 25263 ft 328 kts 170°
2026-05-07 03:50 38.73464 -119.93689 25251 ft 345 kts 170°
2026-05-07 03:50 38.71076 -119.93178 25243 ft 359 kts 170°
2026-05-07 03:50 38.68570 -119.92642 25231 ft 372 kts 170°
2026-05-07 03:51 38.65973 -119.92088 25224 ft 383 kts 170°
2026-05-07 03:51 38.63305 -119.91513 25211 ft 393 kts 170°
2026-05-07 03:51 38.60583 -119.90936 25279 ft 398 kts 170°
2026-05-07 03:51 38.57853 -119.90355 25474 ft 399 kts 170°
2026-05-07 03:52 38.55097 -119.89766 25674 ft 400 kts 170°
2026-05-07 03:52 38.52346 -119.89178 25862 ft 402 kts 170°
2026-05-07 03:52 38.49578 -119.88593 26054 ft 403 kts 170°
2026-05-07 03:52 38.46804 -119.88001 26234 ft 405 kts 170°
2026-05-07 03:53 38.44021 -119.87404 26396 ft 406 kts 170°
2026-05-07 03:53 38.41221 -119.86813 26588 ft 407 kts 170°
2026-05-07 03:53 38.38456 -119.86228 26774 ft 408 kts 170°
2026-05-07 03:53 38.35651 -119.85632 26934 ft 410 kts 170°
2026-05-07 03:54 38.32829 -119.85033 27116 ft 411 kts 170°
2026-05-07 03:54 38.30005 -119.84431 27265 ft 412 kts 170°
2026-05-07 03:54 38.27178 -119.83838 27432 ft 413 kts 170°
2026-05-07 03:54 38.24341 -119.83239 27584 ft 414 kts 170°
2026-05-07 03:55 38.21492 -119.82636 27733 ft 415 kts 170°
2026-05-07 03:55 38.18637 -119.82034 27887 ft 416 kts 170°
2026-05-07 03:55 38.15780 -119.81431 28036 ft 417 kts 170°
2026-05-07 03:55 38.12907 -119.80827 28179 ft 418 kts 170°
2026-05-07 03:56 38.10032 -119.80223 28322 ft 419 kts 170°
2026-05-07 03:56 38.07142 -119.79612 28468 ft 420 kts 170°
2026-05-07 03:56 38.04254 -119.79004 28606 ft 421 kts 170°
2026-05-07 03:56 38.01370 -119.78400 28757 ft 422 kts 170°
2026-05-07 03:57 37.98461 -119.77791 28779 ft 426 kts 170°
2026-05-07 03:57 37.92589 -119.76557 29015 ft 427 kts 170°
2026-05-07 03:57 37.89689 -119.75954 29129 ft 427 kts 170°
2026-05-07 03:58 37.86747 -119.75336 29154 ft 431 kts 170°
2026-05-07 03:58 37.80780 -119.74089 29145 ft 436 kts 170°
2026-05-07 03:59 37.74781 -119.72838 29145 ft 438 kts 170°
2026-05-07 03:59 37.68766 -119.71584 29147 ft 440 kts 170°
2026-05-07 04:00 37.62709 -119.70326 29146 ft 441 kts 170°
2026-05-07 04:00 37.56650 -119.69071 29142 ft 441 kts 170°
2026-05-07 04:01 37.50600 -119.67810 29138 ft 441 kts 170°
2026-05-07 04:01 37.44535 -119.66564 29135 ft 441 kts 170°
2026-05-07 04:02 37.38520 -119.65308 29121 ft 440 kts 170°
2026-05-07 04:02 37.32428 -119.64067 29134 ft 441 kts 170°
2026-05-07 04:03 37.26372 -119.62809 29123 ft 441 kts 170°
2026-05-07 04:03 37.20336 -119.61578 29113 ft 441 kts 170°
2026-05-07 04:04 37.14281 -119.60330 29114 ft 442 kts 170°
2026-05-07 04:04 37.08303 -119.58621 29103 ft 440 kts 158°
2026-05-07 04:05 37.02665 -119.55646 29106 ft 440 kts 156°
2026-05-07 04:05 36.96952 -119.53005 29111 ft 440 kts 158°
2026-05-07 04:06 36.91276 -119.50125 29099 ft 440 kts 156°
2026-05-07 04:06 36.85544 -119.47412 29104 ft 440 kts 157°
2026-05-07 04:07 36.79853 -119.44583 29101 ft 440 kts 156°
2026-05-07 04:07 36.74128 -119.41847 29095 ft 440 kts 157°
2026-05-07 04:08 36.68438 -119.39051 29091 ft 440 kts 157°
2026-05-07 04:08 36.62733 -119.36317 29089 ft 439 kts 157°
2026-05-07 04:09 36.57028 -119.33537 29097 ft 439 kts 157°
2026-05-07 04:09 36.51328 -119.30802 29103 ft 439 kts 157°
2026-05-07 04:10 36.45632 -119.28043 29109 ft 439 kts 157°
2026-05-07 04:10 36.39966 -119.25328 29113 ft 439 kts 157°
2026-05-07 04:11 36.34273 -119.22584 29115 ft 439 kts 157°
2026-05-07 04:11 36.28568 -119.19853 29112 ft 439 kts 156°
2026-05-07 04:12 36.22870 -119.17121 29106 ft 439 kts 156°
2026-05-07 04:12 36.17206 -119.14414 29121 ft 439 kts 156°
2026-05-07 04:13 36.11500 -119.11689 29126 ft 439 kts 156°
2026-05-07 04:13 36.05794 -119.08969 29125 ft 439 kts 156°
2026-05-07 04:14 36.00092 -119.06255 29126 ft 439 kts 156°
2026-05-07 04:14 35.94422 -119.03560 29128 ft 439 kts 156°
2026-05-07 04:15 35.88659 -119.01041 29121 ft 441 kts 161°
2026-05-07 04:15 35.82760 -118.98914 29120 ft 441 kts 160°
2026-05-07 04:16 35.76905 -118.96661 29113 ft 441 kts 160°
2026-05-07 04:16 35.71012 -118.94504 29113 ft 441 kts 160°
2026-05-07 04:17 35.65138 -118.92280 29108 ft 442 kts 160°
2026-05-07 04:17 35.59241 -118.90106 29110 ft 442 kts 160°
2026-05-07 04:18 35.53354 -118.87900 29110 ft 442 kts 160°
2026-05-07 04:18 35.47491 -118.85735 29110 ft 442 kts 160°
2026-05-07 04:19 35.41598 -118.83541 29114 ft 442 kts 160°
2026-05-07 04:19 35.35703 -118.81364 29110 ft 442 kts 160°
2026-05-07 04:20 35.29807 -118.79181 29110 ft 442 kts 159°
2026-05-07 04:20 35.23919 -118.77010 29141 ft 442 kts 159°
2026-05-07 04:21 35.15081 -118.73754 29162 ft 442 kts 159°
2026-05-07 04:21 35.09374 -118.71195 29170 ft 435 kts 147°
2026-05-07 04:22 35.06876 -118.69187 29178 ft 428 kts 136°
2026-05-07 04:22 35.04712 -118.66726 29062 ft 423 kts 129°
2026-05-07 04:22 35.02833 -118.63972 29176 ft 421 kts 124°
2026-05-07 04:22 35.00981 -118.61184 29182 ft 425 kts 126°
2026-05-07 04:23 34.99037 -118.58395 28773 ft 435 kts 127°
2026-05-07 04:23 34.97059 -118.55572 28196 ft 436 kts 127°
2026-05-07 04:23 34.95159 -118.52780 27620 ft 421 kts 126°
2026-05-07 04:23 34.93324 -118.50064 27066 ft 409 kts 126°
2026-05-07 04:24 34.91536 -118.47472 26531 ft 399 kts 126°
2026-05-07 04:24 34.89764 -118.44919 26001 ft 390 kts 126°
2026-05-07 04:24 34.88043 -118.42406 25430 ft 383 kts 126°
2026-05-07 04:24 34.86345 -118.39922 24929 ft 377 kts 126°
2026-05-07 04:25 34.84675 -118.37504 24438 ft 372 kts 126°
2026-05-07 04:25 34.83012 -118.35102 23952 ft 368 kts 126°
2026-05-07 04:25 34.81377 -118.32723 23440 ft 365 kts 126°
2026-05-07 04:25 34.79756 -118.30369 22950 ft 360 kts 126°
2026-05-07 04:26 34.78142 -118.28040 22473 ft 356 kts 126°
2026-05-07 04:26 34.76561 -118.25751 22008 ft 353 kts 126°
2026-05-07 04:26 34.74986 -118.23467 21543 ft 351 kts 126°
2026-05-07 04:26 34.73418 -118.21204 21077 ft 349 kts 126°
2026-05-07 04:27 34.71876 -118.18980 20627 ft 347 kts 126°
2026-05-07 04:27 34.70329 -118.16739 20169 ft 345 kts 126°
2026-05-07 04:27 34.68784 -118.14513 19711 ft 344 kts 126°
2026-05-07 04:27 34.67247 -118.12302 19271 ft 342 kts 126°
2026-05-07 04:28 34.65715 -118.10089 18820 ft 341 kts 126°
2026-05-07 04:28 34.64189 -118.07893 18264 ft 342 kts 126°
2026-05-07 04:28 34.62759 -118.05602 17820 ft 340 kts 117°
2026-05-07 04:28 34.61695 -118.03093 17355 ft 336 kts 114°
2026-05-07 04:29 34.60541 -118.00590 16903 ft 334 kts 117°
2026-05-07 04:29 34.59757 -117.98992 16616 ft 332 kts 117°
2026-05-07 04:29 34.58630 -117.96566 16171 ft 329 kts 115°
2026-05-07 04:29 34.57556 -117.94114 15735 ft 327 kts 115°
2026-05-07 04:30 34.56099 -117.90932 15153 ft 325 kts 116°
2026-05-07 04:30 34.54986 -117.88547 14717 ft 324 kts 116°
2026-05-07 04:30 34.53905 -117.86159 14284 ft 323 kts 115°
2026-05-07 04:30 34.53176 -117.84549 14001 ft 322 kts 116°
2026-05-07 04:31 34.52092 -117.82196 13541 ft 317 kts 116°
2026-05-07 04:31 34.51032 -117.79902 13126 ft 312 kts 115°
2026-05-07 04:31 34.49994 -117.77625 12707 ft 307 kts 115°
2026-05-07 04:31 34.48963 -117.75375 12292 ft 304 kts 115°
2026-05-07 04:32 34.47922 -117.73121 11901 ft 301 kts 115°
2026-05-07 04:32 34.46922 -117.70939 11515 ft 299 kts 115°
2026-05-07 04:32 34.45914 -117.68743 11120 ft 297 kts 115°
2026-05-07 04:32 34.44907 -117.66562 10740 ft 296 kts 115°
2026-05-07 04:33 34.43906 -117.64386 10353 ft 295 kts 115°
2026-05-07 04:33 34.42907 -117.62220 10008 ft 293 kts 115°
2026-05-07 04:33 34.41935 -117.60121 9991 ft 282 kts 115°
2026-05-07 04:33 34.40970 -117.58022 9995 ft 293 kts 115°
2026-05-07 04:34 34.39979 -117.55857 10002 ft 288 kts 115°
2026-05-07 04:34 34.38999 -117.53765 10003 ft 284 kts 115°
2026-05-07 04:34 34.38041 -117.51687 9998 ft 281 kts 115°
2026-05-07 04:34 34.37106 -117.49649 9931 ft 282 kts 115°
2026-05-07 04:35 34.36132 -117.47551 9643 ft 287 kts 116°
2026-05-07 04:35 34.35146 -117.45436 9363 ft 289 kts 116°
2026-05-07 04:35 34.34163 -117.43307 9075 ft 289 kts 115°
2026-05-07 04:35 34.33222 -117.41261 8809 ft 290 kts 116°
2026-05-07 04:36 34.32230 -117.39141 8519 ft 290 kts 117°
2026-05-07 04:36 34.31215 -117.37031 8256 ft 291 kts 122°
2026-05-07 04:36 34.29801 -117.35268 7985 ft 297 kts 142°
2026-05-07 04:36 34.27906 -117.34284 7720 ft 298 kts 166°
2026-05-07 04:37 34.25880 -117.33879 7463 ft 291 kts 171°
2026-05-07 04:37 34.23897 -117.33558 7178 ft 284 kts 172°
2026-05-07 04:37 34.21965 -117.33244 7104 ft 271 kts 171°
2026-05-07 04:37 34.20130 -117.32942 7120 ft 263 kts 171°
2026-05-07 04:38 34.18330 -117.32643 7128 ft 264 kts 171°
2026-05-07 04:38 34.16460 -117.32330 7134 ft 279 kts 171°
2026-05-07 04:38 34.14499 -117.32002 7140 ft 290 kts 171°
2026-05-07 04:38 34.12471 -117.31662 6920 ft 293 kts 171°
2026-05-07 04:39 34.10457 -117.31332 6672 ft 287 kts 173°
2026-05-07 04:39 34.08568 -117.31451 6401 ft 269 kts 196°
2026-05-07 04:39 34.07040 -117.32499 6127 ft 234 kts 226°
2026-05-07 04:39 34.06298 -117.33720 5908 ft 219 kts 240°
2026-05-07 04:41 34.05933 -117.34575 5727 ft 215 kts 251°
2026-05-07 04:41 34.05719 -117.36211 5527 ft 178 kts 266°
2026-05-07 04:41 34.05660 -117.37641 4983 ft 175 kts 268°
2026-05-07 04:41 34.05655 -117.39150 4325 ft 178 kts 270°
2026-05-07 04:42 34.05676 -117.40545 4086 ft 160 kts 270°
2026-05-07 04:42 34.05681 -117.41905 3679 ft 160 kts 268°
2026-05-07 04:42 34.05650 -117.43207 3397 ft 156 kts 266°
2026-05-07 04:42 34.05580 -117.44496 3119 ft 153 kts 265°
2026-05-07 04:43 34.05508 -117.45772 2808 ft 152 kts 266°
2026-05-07 04:43 34.05474 -117.47025 2622 ft 145 kts 268°
2026-05-07 04:43 34.05489 -117.48220 2437 ft 141 kts 271°
2026-05-07 04:43 34.05517 -117.49401 2245 ft 140 kts 268°
2026-05-07 04:44 34.05488 -117.50576 2070 ft 137 kts 266°
2026-05-07 04:44 34.05479 -117.51739 1865 ft 141 kts 270°
2026-05-07 04:44 34.05499 -117.52901 1750 ft 137 kts 269°
2026-05-07 04:44 34.05499 -117.54033 1620 ft 131 kts 267°
2026-05-07 04:45 34.05476 -117.55037 1562 ft 116 kts 268°
2026-05-07 04:45 34.05472 -117.56010 1321 ft 118 kts 269°
2026-05-07 04:45 34.05498 -117.56973 1181 ft 112 kts 271°
2026-05-07 04:45 34.05501 -117.57912 1017 ft 111 kts 268°
2026-05-07 04:46 34.05498 -117.58798 936 ft 96 kts 268°
2026-05-07 04:46 34.05491 -117.59497 928 ft 72 kts 269°
2026-05-07 04:46 34.05494 -117.60027 929 ft 53 kts 268°
2026-05-07 04:46 34.05405 -117.60232 929 ft 18 kts 239°
2026-05-07 04:47 34.05387 -117.60362 927 ft 15 kts 269°
2026-05-07 04:47 34.05387 -117.60476 927 ft 13 kts 269°
2026-05-07 04:47 34.05386 -117.60587 928 ft 13 kts 269°
2026-05-07 04:47 34.05386 -117.60699 928 ft 14 kts 270°
2026-05-07 04:48 34.05385 -117.60818 928 ft 15 kts 269°
2026-05-07 04:48 34.05385 -117.60946 928 ft 15 kts 270°
2026-05-07 04:48 34.05386 -117.61074 934 ft 15 kts 271°
2026-05-07 04:48 34.05336 -117.61162 931 ft 15 kts 185°
2026-05-07 04:49 34.05269 -117.61163 930 ft 0 kts 181°